Tracking 19794 objects as of 23-Jul-2019
HD Live streaming from Space Station
objects crossing your sky now

PERSEUS M1

Track PERSEUS M1 now!
10-day predictions
PERSEUS M1 is classified as:


NORAD ID: 40039
Int'l Code: 2014-033AF
Perigee: 608.0 km
Apogee: 626.6 km
Inclination: 97.9 °
Period: 96.9 minutes
Semi major axis: 6988 km
RCS: Unknown
Launch date: June 19, 2014
Source: Commonwealth of Independent States (former USSR) (CIS)
Launch site: Orenburg, Russia (OREN)

Uplink (MHz):
Downlink (MHz): 400.160/400.170
Beacon (MHz):
Mode: 9600bps GFSK
Call sign:
Status:

aabbcc
Your satellite tracking list
Your tracking list is empty




NASA's NSSDC Master Catalog

Two Line Element Set (TLE):
1 40039U 14033AF  19203.20827251  .00000053  00000-0  12278-4 0  9991
2 40039  97.8881 116.1226 0013307 320.8349  39.1902 14.86084971275883
Source of the keplerian elements: AFSPC